ACI3MD YBBN-NWWW

Flight info

Callsign ACI3MD
Flight time 1h 44m
Altitude 37000
Route GUMKI2/01R GUMKI B578 TEBUR DCT NISAS NISAS2A
Aircraft A339/H-SADE1E2E3GHIJ1J3J5M1P2RWXY/LB2D1

Departure

Time 2026-05-05 10:52
Airport Brisbane International Airport (YBBN)

Arrival

Time 2026-05-05 12:36
Airport La Tontouta International Airport (NWWW)
Time Latitude Longitude Altitude Speed Heading
2026-05-05 10:12 -27.40294 153.11177 30 ft 0 kts 297°
2026-05-05 10:44 -27.40296 153.11182 31 ft 2 kts 297°
2026-05-05 10:44 -27.40303 153.11197 31 ft 2 kts 297°
2026-05-05 10:45 -27.40310 153.11212 31 ft 2 kts 303°
2026-05-05 10:45 -27.40321 153.11224 31 ft 2 kts 331°
2026-05-05 10:45 -27.40335 153.11230 31 ft 2 kts 353°
2026-05-05 10:45 -27.40350 153.11229 31 ft 2 kts 16°
2026-05-05 10:46 -27.40358 153.11226 31 ft 1 kts 28°
2026-05-05 10:46 -27.40361 153.11224 31 ft 0 kts 27°
2026-05-05 10:49 -27.40351 153.11230 31 ft 4 kts 26°
2026-05-05 10:49 -27.40307 153.11255 31 ft 9 kts 30°
2026-05-05 10:49 -27.40244 153.11296 30 ft 10 kts 30°
2026-05-05 10:49 -27.40195 153.11357 31 ft 10 kts 78°
2026-05-05 10:50 -27.40220 153.11438 31 ft 11 kts 119°
2026-05-05 10:50 -27.40258 153.11523 30 ft 12 kts 112°
2026-05-05 10:50 -27.40293 153.11615 30 ft 13 kts 115°
2026-05-05 10:50 -27.40318 153.11714 31 ft 13 kts 90°
2026-05-05 10:51 -27.40282 153.11812 30 ft 20 kts 39°
2026-05-05 10:51 -27.39956 153.12007 31 ft 84 kts 27°
2026-05-05 10:51 -27.39249 153.12410 31 ft 139 kts 27°
2026-05-05 10:51 -27.38279 153.12984 161 ft 170 kts 29°
2026-05-05 10:52 -27.37232 153.13597 661 ft 168 kts 30°
2026-05-05 10:52 -27.36284 153.14378 1081 ft 168 kts 46°
2026-05-05 10:52 -27.35477 153.15320 1505 ft 168 kts 50°
2026-05-05 10:52 -27.34673 153.16315 1855 ft 175 kts 50°
2026-05-05 10:53 -27.33823 153.17363 2109 ft 188 kts 50°
2026-05-05 10:53 -27.32904 153.18483 2358 ft 202 kts 49°
2026-05-05 10:53 -27.31896 153.19699 2627 ft 216 kts 49°
2026-05-05 10:53 -27.30823 153.20984 2905 ft 231 kts 50°
2026-05-05 10:54 -27.29705 153.22330 3173 ft 245 kts 51°
2026-05-05 10:54 -27.28779 153.24071 3559 ft 250 kts 75°
2026-05-05 10:54 -27.28534 153.26018 4110 ft 249 kts 88°
2026-05-05 10:54 -27.28462 153.27960 4638 ft 252 kts 89°
2026-05-05 10:55 -27.28395 153.29977 5173 ft 255 kts 89°
2026-05-05 10:55 -27.28318 153.31999 5715 ft 260 kts 89°
2026-05-05 10:55 -27.28231 153.34035 6448 ft 261 kts 89°
2026-05-05 10:55 -27.28142 153.36105 7140 ft 263 kts 88°
2026-05-05 10:56 -27.28050 153.38176 7688 ft 266 kts 88°
2026-05-05 10:56 -27.27863 153.40328 8245 ft 271 kts 82°
2026-05-05 10:56 -27.27506 153.42476 8836 ft 277 kts 78°
2026-05-05 10:56 -27.27080 153.44615 9386 ft 284 kts 77°
2026-05-05 10:57 -27.26617 153.46892 10032 ft 289 kts 76°
2026-05-05 10:57 -27.26158 153.49158 10482 ft 300 kts 76°
2026-05-05 10:57 -27.25685 153.51483 10765 ft 316 kts 76°
2026-05-05 10:57 -27.25162 153.54062 11072 ft 333 kts 75°
2026-05-05 10:58 -27.24636 153.56667 11528 ft 342 kts 75°
2026-05-05 10:58 -27.24100 153.59322 12066 ft 349 kts 75°
2026-05-05 10:58 -27.23591 153.61842 12562 ft 354 kts 74°
2026-05-05 10:58 -27.23035 153.64594 13057 ft 361 kts 74°
2026-05-05 10:59 -27.22465 153.67415 13577 ft 367 kts 73°
2026-05-05 10:59 -27.21872 153.70325 14094 ft 372 kts 73°
2026-05-05 10:59 -27.21301 153.73126 14656 ft 376 kts 73°
2026-05-05 10:59 -27.20718 153.75998 15229 ft 379 kts 72°
2026-05-05 11:00 -27.20134 153.78871 15769 ft 383 kts 72°
2026-05-05 11:00 -27.19525 153.81851 16379 ft 385 kts 72°
2026-05-05 11:00 -27.18869 153.84735 16951 ft 386 kts 69°
2026-05-05 11:00 -27.18017 153.87589 17537 ft 386 kts 64°
2026-05-05 11:01 -27.16954 153.90434 18120 ft 388 kts 60°
2026-05-05 11:01 -27.15865 153.93184 18643 ft 392 kts 60°
2026-05-05 11:01 -27.14754 153.95967 19139 ft 396 kts 60°
2026-05-05 11:01 -27.13672 153.98680 19668 ft 399 kts 60°
2026-05-05 11:02 -27.12600 154.01379 20137 ft 404 kts 60°
2026-05-05 11:02 -27.11496 154.04166 20614 ft 408 kts 59°
2026-05-05 11:02 -27.10349 154.07054 21091 ft 412 kts 59°
2026-05-05 11:02 -27.09260 154.09801 21501 ft 416 kts 59°
2026-05-05 11:03 -27.08145 154.12608 21964 ft 420 kts 59°
2026-05-05 11:03 -27.07025 154.15437 22448 ft 422 kts 59°
2026-05-05 11:03 -27.05813 154.18489 22912 ft 426 kts 58°
2026-05-05 11:03 -27.04633 154.21458 23368 ft 429 kts 59°
2026-05-05 11:04 -27.03427 154.24487 23819 ft 432 kts 58°
2026-05-05 11:04 -27.02167 154.27650 24244 ft 436 kts 59°
2026-05-05 11:04 -27.00927 154.30762 24692 ft 439 kts 59°
2026-05-05 11:04 -26.99689 154.33874 25119 ft 442 kts 59°
2026-05-05 11:05 -26.98429 154.37038 25523 ft 445 kts 59°
2026-05-05 11:05 -26.97152 154.40240 25936 ft 448 kts 59°
2026-05-05 11:05 -26.95876 154.43431 26287 ft 452 kts 59°
2026-05-05 11:05 -26.94597 154.46626 26610 ft 456 kts 59°
2026-05-05 11:06 -26.93398 154.49620 26918 ft 460 kts 59°
2026-05-05 11:06 -26.92136 154.52780 27277 ft 462 kts 60°
2026-05-05 11:06 -26.90817 154.56070 27571 ft 467 kts 59°
2026-05-05 11:06 -26.89492 154.59383 27935 ft 469 kts 59°
2026-05-05 11:07 -26.88207 154.62590 28268 ft 472 kts 60°
2026-05-05 11:07 -26.86860 154.65939 28571 ft 476 kts 59°
2026-05-05 11:07 -26.85486 154.69359 28850 ft 480 kts 59°
2026-05-05 11:07 -26.84069 154.72879 29170 ft 483 kts 59°
2026-05-05 11:08 -26.83156 154.75150 29358 ft 485 kts 59°
2026-05-05 11:08 -26.81330 154.79684 29771 ft 489 kts 59°
2026-05-05 11:08 -26.79880 154.83285 30178 ft 489 kts 59°
2026-05-05 11:08 -26.78475 154.86766 30490 ft 492 kts 59°
2026-05-05 11:09 -26.77168 154.89999 30795 ft 493 kts 59°
2026-05-05 11:09 -26.75832 154.93306 31094 ft 495 kts 59°
2026-05-05 11:09 -26.74374 154.96905 31395 ft 498 kts 60°
2026-05-05 11:09 -26.72943 155.00435 31702 ft 499 kts 59°
2026-05-05 11:10 -26.71614 155.03723 31998 ft 501 kts 59°
2026-05-05 11:10 -26.70279 155.07018 32283 ft 502 kts 59°
2026-05-05 11:10 -26.68827 155.10594 32610 ft 503 kts 59°
2026-05-05 11:10 -26.67426 155.14046 32888 ft 504 kts 59°
2026-05-05 11:11 -26.66067 155.17383 33153 ft 506 kts 59°
2026-05-05 11:11 -26.64677 155.20796 33459 ft 506 kts 59°
2026-05-05 11:11 -26.63239 155.24335 33789 ft 506 kts 59°
2026-05-05 11:11 -26.61850 155.27745 34097 ft 507 kts 59°
2026-05-05 11:12 -26.60495 155.31065 34338 ft 508 kts 58°
2026-05-05 11:12 -26.59077 155.34538 34613 ft 509 kts 59°
2026-05-05 11:12 -26.57595 155.38165 34910 ft 509 kts 58°
2026-05-05 11:12 -26.56182 155.41621 35235 ft 509 kts 58°
2026-05-05 11:13 -26.54805 155.44983 35501 ft 509 kts 57°
2026-05-05 11:13 -26.53406 155.48396 35728 ft 510 kts 58°
2026-05-05 11:13 -26.51915 155.52025 35947 ft 512 kts 57°
2026-05-05 11:13 -26.50444 155.55605 36117 ft 514 kts 57°
2026-05-05 11:14 -26.49015 155.59071 36326 ft 515 kts 58°
2026-05-05 11:14 -26.47599 155.62511 36468 ft 518 kts 58°
2026-05-05 11:14 -26.46050 155.66273 36627 ft 521 kts 57°
2026-05-05 11:14 -26.44570 155.69878 36792 ft 522 kts 57°
2026-05-05 11:15 -26.43148 155.73354 36988 ft 523 kts 58°
2026-05-05 11:15 -26.40322 155.80858 37053 ft 526 kts 59°
2026-05-05 11:16 -26.37581 155.88231 37053 ft 526 kts 60°
2026-05-05 11:16 -26.34738 155.95844 37049 ft 526 kts 59°
2026-05-05 11:17 -26.31912 156.03392 37053 ft 526 kts 59°
2026-05-05 11:17 -26.29001 156.11136 37049 ft 527 kts 59°
2026-05-05 11:18 -26.26150 156.18701 37049 ft 528 kts 60°
2026-05-05 11:18 -26.23258 156.26387 37053 ft 525 kts 60°
2026-05-05 11:19 -26.20378 156.33989 37051 ft 529 kts 60°
2026-05-05 11:19 -26.17469 156.41684 37059 ft 527 kts 60°
2026-05-05 11:20 -26.14498 156.49510 37052 ft 527 kts 60°
2026-05-05 11:20 -26.11560 156.57228 37063 ft 528 kts 60°
2026-05-05 11:21 -26.08596 156.65021 37056 ft 528 kts 60°
2026-05-05 11:21 -26.05632 156.72795 37060 ft 528 kts 60°
2026-05-05 11:22 -26.02847 156.80077 37064 ft 528 kts 60°
2026-05-05 11:22 -25.99919 156.87711 37060 ft 529 kts 60°
2026-05-05 11:23 -25.97025 156.95258 37063 ft 528 kts 60°
2026-05-05 11:23 -25.94082 157.02919 37063 ft 529 kts 60°
2026-05-05 11:24 -25.91140 157.10553 37056 ft 530 kts 60°
2026-05-05 11:24 -25.88204 157.18172 37050 ft 528 kts 60°
2026-05-05 11:25 -25.85279 157.25735 37044 ft 530 kts 60°
2026-05-05 11:25 -25.82281 157.33475 37046 ft 529 kts 60°
2026-05-05 11:26 -25.79365 157.40993 37044 ft 529 kts 61°
2026-05-05 11:26 -25.76388 157.48660 37045 ft 530 kts 60°
2026-05-05 11:27 -25.73468 157.56157 37045 ft 529 kts 61°
2026-05-05 11:27 -25.70504 157.63747 37044 ft 531 kts 61°
2026-05-05 11:28 -25.67531 157.71365 37043 ft 530 kts 60°
2026-05-05 11:28 -25.64555 157.78964 37045 ft 530 kts 60°
2026-05-05 11:29 -25.61606 157.86484 37042 ft 529 kts 60°
2026-05-05 11:29 -25.58638 157.94026 37044 ft 531 kts 61°
2026-05-05 11:30 -25.55660 158.01601 37043 ft 531 kts 61°
2026-05-05 11:30 -25.52689 158.09137 37042 ft 530 kts 60°
2026-05-05 11:31 -25.49712 158.16670 37041 ft 529 kts 61°
2026-05-05 11:31 -25.46680 158.24327 37042 ft 529 kts 61°
2026-05-05 11:32 -25.43680 158.31891 37041 ft 530 kts 61°
2026-05-05 11:32 -25.40644 158.39543 37044 ft 530 kts 61°
2026-05-05 11:33 -25.37570 158.47261 37043 ft 531 kts 61°
2026-05-05 11:33 -25.34553 158.54826 37044 ft 531 kts 61°
2026-05-05 11:34 -25.31444 158.62616 37041 ft 532 kts 61°
2026-05-05 11:34 -25.28385 158.70262 37040 ft 531 kts 61°
2026-05-05 11:35 -25.25295 158.77977 37042 ft 532 kts 60°
2026-05-05 11:35 -25.22212 158.85649 37043 ft 532 kts 61°
2026-05-05 11:36 -25.19173 158.93204 37042 ft 532 kts 61°
2026-05-05 11:36 -25.16100 159.00825 37044 ft 533 kts 61°
2026-05-05 11:37 -25.12955 159.08620 37045 ft 533 kts 61°
2026-05-05 11:37 -25.09900 159.16173 37045 ft 532 kts 61°
2026-05-05 11:38 -25.06771 159.23901 37044 ft 532 kts 61°
2026-05-05 11:38 -25.03689 159.31490 37045 ft 533 kts 62°
2026-05-05 11:39 -25.00618 159.39047 37043 ft 533 kts 61°
2026-05-05 11:39 -24.97450 159.46826 37045 ft 533 kts 61°
2026-05-05 11:40 -24.94329 159.54477 37044 ft 532 kts 62°
2026-05-05 11:40 -24.91222 159.62071 37041 ft 533 kts 62°
2026-05-05 11:41 -24.88061 159.69801 37037 ft 532 kts 61°
2026-05-05 11:41 -24.84903 159.77495 37038 ft 532 kts 62°
2026-05-05 11:42 -24.81797 159.85063 37040 ft 531 kts 61°
2026-05-05 11:42 -24.78702 159.92570 37040 ft 532 kts 62°
2026-05-05 11:43 -24.75624 160.00041 37040 ft 532 kts 62°
2026-05-05 11:43 -24.72464 160.07698 37041 ft 531 kts 61°
2026-05-05 11:44 -24.69287 160.15375 37041 ft 532 kts 61°
2026-05-05 11:44 -24.66148 160.22954 37039 ft 531 kts 61°
2026-05-05 11:45 -24.62967 160.30609 37036 ft 532 kts 62°
2026-05-05 11:45 -24.59794 160.38240 37034 ft 534 kts 62°
2026-05-05 11:46 -24.56623 160.45845 37030 ft 534 kts 62°
2026-05-05 11:46 -24.53413 160.53520 37031 ft 534 kts 62°
2026-05-05 11:47 -24.50212 160.61154 37032 ft 534 kts 62°
2026-05-05 11:47 -24.47012 160.68777 37027 ft 535 kts 62°
2026-05-05 11:48 -24.42175 160.80273 37034 ft 535 kts 61°
2026-05-05 11:48 -24.38954 160.87907 37036 ft 536 kts 62°
2026-05-05 11:49 -24.35703 160.95605 37039 ft 536 kts 61°
2026-05-05 11:49 -24.32497 161.03180 37031 ft 536 kts 62°
2026-05-05 11:50 -24.29226 161.10906 37033 ft 536 kts 62°
2026-05-05 11:50 -24.25934 161.18652 37043 ft 537 kts 62°
2026-05-05 11:51 -24.22661 161.26352 37036 ft 537 kts 62°
2026-05-05 11:51 -24.19354 161.34119 37040 ft 538 kts 62°
2026-05-05 11:52 -24.16065 161.41826 37039 ft 538 kts 62°
2026-05-05 11:52 -24.12788 161.49489 37042 ft 538 kts 62°
2026-05-05 11:53 -24.09487 161.57199 37042 ft 538 kts 62°
2026-05-05 11:53 -24.06269 161.64697 37036 ft 538 kts 62°
2026-05-05 11:54 -24.02982 161.72359 37027 ft 538 kts 62°
2026-05-05 11:54 -23.99639 161.80121 37022 ft 539 kts 62°
2026-05-05 11:55 -23.96322 161.87819 37018 ft 538 kts 62°
2026-05-05 11:55 -23.93040 161.95421 37023 ft 539 kts 62°
2026-05-05 11:56 -23.89736 162.03058 37022 ft 539 kts 62°
2026-05-05 11:56 -23.86393 162.10774 37027 ft 539 kts 62°
2026-05-05 11:57 -23.83099 162.18365 37026 ft 539 kts 62°
2026-05-05 11:57 -23.79839 162.25864 37024 ft 539 kts 62°
2026-05-05 11:58 -23.76550 162.33429 37026 ft 539 kts 62°
2026-05-05 11:58 -23.73190 162.41128 37026 ft 539 kts 62°
2026-05-05 11:59 -23.69875 162.48724 37025 ft 538 kts 62°
2026-05-05 11:59 -23.66536 162.56349 37024 ft 538 kts 63°
2026-05-05 12:00 -23.63221 162.63917 37024 ft 539 kts 62°
2026-05-05 12:00 -23.59841 162.71619 37021 ft 538 kts 62°
2026-05-05 12:01 -23.56514 162.79181 37024 ft 539 kts 62°
2026-05-05 12:01 -23.53142 162.86842 37023 ft 538 kts 62°
2026-05-05 12:02 -23.49776 162.94475 37027 ft 538 kts 62°
2026-05-05 12:02 -23.46285 163.02376 37024 ft 538 kts 63°
2026-05-05 12:03 -23.42947 163.09952 37028 ft 539 kts 62°
2026-05-05 12:03 -23.39612 163.17508 37033 ft 539 kts 62°
2026-05-05 12:04 -23.36332 163.24927 37032 ft 538 kts 62°
2026-05-05 12:04 -23.32907 163.32646 37029 ft 539 kts 63°
2026-05-05 12:05 -23.29569 163.40169 36510 ft 540 kts 63°
2026-05-05 12:05 -23.27920 163.43881 36008 ft 538 kts 63°
2026-05-05 12:05 -23.26221 163.47699 35562 ft 533 kts 63°
2026-05-05 12:06 -23.24513 163.51532 35047 ft 530 kts 63°
2026-05-05 12:06 -23.22894 163.55165 34549 ft 527 kts 63°
2026-05-05 12:06 -23.21183 163.59006 34006 ft 525 kts 63°
2026-05-05 12:06 -23.19513 163.62747 33545 ft 520 kts 63°
2026-05-05 12:07 -23.17949 163.66251 33086 ft 518 kts 63°
2026-05-05 12:07 -23.16352 163.69827 32593 ft 519 kts 63°
2026-05-05 12:07 -23.14746 163.73422 32188 ft 514 kts 63°
2026-05-05 12:07 -23.13160 163.76967 31896 ft 510 kts 63°
2026-05-05 12:08 -23.11535 163.80600 31535 ft 507 kts 63°
2026-05-05 12:08 -23.09982 163.84062 31181 ft 504 kts 63°
2026-05-05 12:08 -23.08383 163.87624 30819 ft 501 kts 63°
2026-05-05 12:08 -23.06773 163.91206 30440 ft 498 kts 63°
2026-05-05 12:09 -23.05244 163.94606 30079 ft 494 kts 63°
2026-05-05 12:09 -23.03662 163.98126 29716 ft 491 kts 63°
2026-05-05 12:09 -23.02101 164.01601 29372 ft 487 kts 63°
2026-05-05 12:09 -23.00601 164.04929 29021 ft 484 kts 63°
2026-05-05 12:10 -22.99094 164.08270 28682 ft 480 kts 63°
2026-05-05 12:10 -22.97555 164.11688 28346 ft 477 kts 63°
2026-05-05 12:10 -22.96065 164.14993 28034 ft 473 kts 63°
2026-05-05 12:10 -22.94562 164.18320 27709 ft 469 kts 63°
2026-05-05 12:11 -22.93048 164.21672 27374 ft 466 kts 63°
2026-05-05 12:11 -22.91633 164.24795 27034 ft 464 kts 64°
2026-05-05 12:11 -22.90109 164.28165 26664 ft 460 kts 63°
2026-05-05 12:11 -22.88669 164.31332 26334 ft 457 kts 64°
2026-05-05 12:12 -22.87280 164.34383 26021 ft 454 kts 64°
2026-05-05 12:12 -22.85830 164.37564 25672 ft 450 kts 64°
2026-05-05 12:12 -22.84430 164.40633 25330 ft 447 kts 64°
2026-05-05 12:12 -22.83045 164.43663 25018 ft 444 kts 64°
2026-05-05 12:13 -22.81679 164.46654 24684 ft 441 kts 64°
2026-05-05 12:13 -22.80307 164.49655 24345 ft 438 kts 64°
2026-05-05 12:13 -22.78934 164.52657 24012 ft 435 kts 64°
2026-05-05 12:13 -22.77575 164.55626 23683 ft 432 kts 64°
2026-05-05 12:14 -22.76200 164.58629 23369 ft 428 kts 64°
2026-05-05 12:14 -22.74762 164.61769 23015 ft 425 kts 64°
2026-05-05 12:14 -22.73417 164.64703 22683 ft 422 kts 64°
2026-05-05 12:14 -22.72102 164.67569 22332 ft 420 kts 64°
2026-05-05 12:15 -22.70781 164.70448 21998 ft 416 kts 64°
2026-05-05 12:15 -22.69488 164.73261 21663 ft 413 kts 64°
2026-05-05 12:15 -22.68188 164.76086 21335 ft 410 kts 64°
2026-05-05 12:15 -22.66900 164.78886 20998 ft 407 kts 64°
2026-05-05 12:16 -22.65621 164.81667 20682 ft 404 kts 64°
2026-05-05 12:16 -22.64324 164.84483 20342 ft 401 kts 64°
2026-05-05 12:16 -22.63087 164.87172 20022 ft 398 kts 64°
2026-05-05 12:16 -22.61827 164.89905 19673 ft 396 kts 65°
2026-05-05 12:17 -22.60560 164.92653 19329 ft 393 kts 65°
2026-05-05 12:17 -22.59317 164.95346 19019 ft 390 kts 65°
2026-05-05 12:17 -22.58055 164.98077 18683 ft 387 kts 65°
2026-05-05 12:17 -22.56831 165.00731 18351 ft 384 kts 65°
2026-05-05 12:18 -22.55635 165.03322 18033 ft 381 kts 65°
2026-05-05 12:18 -22.54438 165.05910 17706 ft 379 kts 65°
2026-05-05 12:18 -22.53223 165.08537 17364 ft 377 kts 65°
2026-05-05 12:18 -22.52037 165.11099 17032 ft 374 kts 65°
2026-05-05 12:19 -22.50871 165.13615 16695 ft 373 kts 65°
2026-05-05 12:19 -22.49698 165.16147 16351 ft 371 kts 65°
2026-05-05 12:19 -22.48516 165.18697 16008 ft 369 kts 65°
2026-05-05 12:19 -22.47357 165.21196 15675 ft 367 kts 65°
2026-05-05 12:20 -22.46195 165.23702 15349 ft 364 kts 65°
2026-05-05 12:20 -22.45023 165.26225 15024 ft 362 kts 65°
2026-05-05 12:20 -22.43854 165.28742 14687 ft 360 kts 65°
2026-05-05 12:20 -22.42697 165.31233 14363 ft 357 kts 65°
2026-05-05 12:21 -22.41575 165.33647 14051 ft 355 kts 64°
2026-05-05 12:21 -22.40456 165.36050 13729 ft 353 kts 65°
2026-05-05 12:21 -22.39300 165.38535 13393 ft 351 kts 65°
2026-05-05 12:21 -22.38172 165.40956 13068 ft 349 kts 65°
2026-05-05 12:22 -22.37075 165.43311 12754 ft 347 kts 65°
2026-05-05 12:22 -22.35983 165.45653 12433 ft 345 kts 64°
2026-05-05 12:22 -22.34865 165.48051 12113 ft 343 kts 64°
2026-05-05 12:22 -22.33781 165.50374 11796 ft 341 kts 64°
2026-05-05 12:23 -22.32696 165.52699 11482 ft 338 kts 64°
2026-05-05 12:23 -22.31596 165.55054 11163 ft 336 kts 64°
2026-05-05 12:23 -22.30535 165.57323 10864 ft 333 kts 64°
2026-05-05 12:23 -22.29480 165.59580 10574 ft 330 kts 64°
2026-05-05 12:24 -22.28451 165.61781 10272 ft 328 kts 64°
2026-05-05 12:24 -22.27413 165.64003 10083 ft 321 kts 64°
2026-05-05 12:24 -22.26428 165.66106 10069 ft 308 kts 63°
2026-05-05 12:24 -22.25457 165.68178 10046 ft 297 kts 64°
2026-05-05 12:25 -22.24542 165.70134 9979 ft 288 kts 64°
2026-05-05 12:25 -22.23588 165.72171 9663 ft 288 kts 64°
2026-05-05 12:25 -22.22655 165.74165 9366 ft 288 kts 64°
2026-05-05 12:25 -22.21742 165.76111 9096 ft 286 kts 64°
2026-05-05 12:26 -22.20803 165.78114 8823 ft 285 kts 64°
2026-05-05 12:26 -22.19871 165.80100 8554 ft 283 kts 64°
2026-05-05 12:26 -22.18966 165.82028 8287 ft 282 kts 64°
2026-05-05 12:26 -22.18064 165.83949 8019 ft 280 kts 64°
2026-05-05 12:27 -22.17152 165.85892 7755 ft 279 kts 64°
2026-05-05 12:27 -22.16252 165.87805 7493 ft 277 kts 64°
2026-05-05 12:27 -22.15361 165.89699 7224 ft 276 kts 64°
2026-05-05 12:27 -22.14464 165.91606 6992 ft 273 kts 64°
2026-05-05 12:28 -22.13573 165.93500 6957 ft 263 kts 64°
2026-05-05 12:28 -22.12651 165.95187 6938 ft 253 kts 47°
2026-05-05 12:28 -22.11089 165.96147 6931 ft 245 kts 12°
2026-05-05 12:28 -22.09343 165.96066 6791 ft 243 kts 346°
2026-05-05 12:29 -22.07715 165.95525 6621 ft 239 kts 344°
2026-05-05 12:29 -22.05989 165.94984 6423 ft 235 kts 348°
2026-05-05 12:29 -22.04317 165.94595 6231 ft 231 kts 353°
2026-05-05 12:29 -22.02708 165.94356 6052 ft 226 kts 358°
2026-05-05 12:30 -22.01011 165.94240 5834 ft 221 kts
2026-05-05 12:30 -21.99422 165.94252 5606 ft 217 kts
2026-05-05 12:30 -21.97831 165.94383 5215 ft 221 kts 12°
2026-05-05 12:30 -21.96326 165.95003 4785 ft 216 kts 38°
2026-05-05 12:31 -21.95323 165.96217 4333 ft 212 kts 66°
2026-05-05 12:31 -21.94814 165.97824 3874 ft 210 kts 76°
2026-05-05 12:31 -21.94543 165.99440 3544 ft 204 kts 83°
2026-05-05 12:31 -21.94409 166.00974 3333 ft 200 kts 84°
2026-05-05 12:32 -21.94275 166.02556 3116 ft 197 kts 84°
2026-05-05 12:32 -21.94134 166.04077 2901 ft 193 kts 83°
2026-05-05 12:32 -21.93987 166.05553 2698 ft 190 kts 83°
2026-05-05 12:32 -21.93860 166.07094 2480 ft 186 kts 94°
2026-05-05 12:33 -21.94237 166.08441 2314 ft 176 kts 114°
2026-05-05 12:33 -21.94831 166.09570 2208 ft 161 kts 120°
2026-05-05 12:33 -21.95441 166.10609 1987 ft 154 kts 120°
2026-05-05 12:33 -21.96034 166.11630 1777 ft 151 kts 119°
2026-05-05 12:34 -21.96604 166.12640 1579 ft 151 kts 119°
2026-05-05 12:34 -21.97180 166.13673 1374 ft 151 kts 119°
2026-05-05 12:34 -21.97723 166.14647 1178 ft 150 kts 119°
2026-05-05 12:34 -21.98307 166.15692 966 ft 150 kts 120°
2026-05-05 12:35 -21.98873 166.16701 759 ft 149 kts 120°
2026-05-05 12:35 -21.99413 166.17665 565 ft 149 kts 120°
2026-05-05 12:35 -21.99958 166.18637 366 ft 148 kts 121°
2026-05-05 12:35 -22.00491 166.19597 165 ft 148 kts 121°
2026-05-05 12:36 -22.01016 166.20523 46 ft 134 kts 122°
2026-05-05 12:36 -22.01352 166.21117 54 ft 54 kts 120°
2026-05-05 12:36 -22.01460 166.21327 58 ft 16 kts 103°
2026-05-05 12:36 -22.01437 166.21407 60 ft 6 kts 45°
2026-05-05 12:37 -22.01414 166.21439 62 ft 4 kts 70°
2026-05-05 12:37 -22.01415 166.21469 63 ft 3 kts 99°
2026-05-05 12:37 -22.01422 166.21493 64 ft 3 kts 113°
2026-05-05 12:37 -22.01444 166.21536 66 ft 8 kts 120°
2026-05-05 12:38 -22.01472 166.21587 68 ft 6 kts 122°
2026-05-05 12:38 -22.01495 166.21625 70 ft 5 kts 122°
2026-05-05 12:38 -22.01508 166.21663 72 ft 4 kts 78°
2026-05-05 12:38 -22.01488 166.21689 74 ft 3 kts 38°
2026-05-05 12:39 -22.01478 166.21696 75 ft 0 kts 37°
2026-05-05 12:39 -22.01468 166.21706 76 ft 1 kts 34°
2026-05-05 12:39 -22.01461 166.21710 77 ft 0 kts 33°